Time,TemperatureF,DewpointF,PressureIn,WindDirection,WindDirectionDegrees,WindSpeedMPH,WindSpeedGustMPH,Humidity,HourlyPrecipIn,Conditions,Clouds,dailyrainin,SoftwareType,DateUTC
2013-07-09 00:02:00,71.0,64.0,-100.00,West,275,2.0,7.0,79,-99.99,,,-99.99,,2013-07-09 04:02:00,
2013-07-09 00:22:00,71.0,64.0,-100.00,WSW,245,2.0,5.0,79,-99.99,,,-99.99,,2013-07-09 04:22:00,
2013-07-09 00:53:00,70.0,64.0,-100.00,SW,220,0.0,4.0,80,-99.99,,,-99.99,,2013-07-09 04:53:00,
2013-07-09 01:02:00,70.0,63.0,-100.00,SW,220,2.0,3.0,80,-99.99,,,-99.99,,2013-07-09 05:02:00,
2013-07-09 01:34:00,69.0,63.0,-100.00,WNW,285,1.0,3.0,81,-99.99,,,-99.99,,2013-07-09 05:34:00,
2013-07-09 01:52:00,69.0,62.0,-100.00,WSW,255,1.0,3.0,80,-99.99,,,-99.99,,2013-07-09 05:52:00,
2013-07-09 02:01:00,69.0,62.0,-100.00,WSW,255,1.0,3.0,80,-99.99,,,-99.99,,2013-07-09 06:01:00,
2013-07-09 02:11:00,69.0,62.0,-100.00,WSW,240,1.0,4.0,80,-99.99,,,-99.99,,2013-07-09 06:11:00,
2013-07-09 02:34:00,68.0,62.0,-100.00,SW,235,2.0,3.0,81,-99.99,,,-99.99,,2013-07-09 06:34:00,
2013-07-09 02:53:00,68.0,62.0,-100.00,West,270,0.0,3.0,81,-99.99,,,-99.99,,2013-07-09 06:53:00,
2013-07-09 03:02:00,68.0,62.0,-100.00,West,270,0.0,3.0,81,-99.99,,,-99.99,,2013-07-09 07:02:00,
2013-07-09 03:12:00,68.0,62.0,-100.00,WSW,245,1.0,6.0,82,-99.99,,,-99.99,,2013-07-09 07:12:00,
2013-07-09 03:34:00,68.0,62.0,-100.00,WSW,245,2.0,3.0,82,-99.99,,,-99.99,,2013-07-09 07:34:00,
2013-07-09 04:01:00,68.0,62.0,-100.00,WNW,285,0.0,3.0,83,-99.99,,,-99.99,,2013-07-09 08:01:00,
2013-07-09 04:11:00,67.0,62.0,-100.00,WNW,300,0.0,1.0,84,-99.99,,,-99.99,,2013-07-09 08:11:00,
2013-07-09 04:22:00,67.0,62.0,-100.00,WNW,300,0.0,1.0,84,-99.99,,,-99.99,,2013-07-09 08:22:00,
2013-07-09 04:52:00,67.0,62.0,-100.00,WSW,245,1.0,4.0,84,-99.99,,,-99.99,,2013-07-09 08:52:00,
2013-07-09 05:02:00,67.0,62.0,-100.00,WSW,245,3.0,4.0,84,-99.99,,,-99.99,,2013-07-09 09:02:00,
2013-07-09 05:12:00,67.0,62.0,-100.00,West,280,2.0,4.0,84,-99.99,,,-99.99,,2013-07-09 09:12:00,
2013-07-09 05:22:00,67.0,62.0,-100.00,West,280,2.0,4.0,84,-99.99,,,-99.99,,2013-07-09 09:22:00,
2013-07-09 05:34:00,67.0,62.0,-100.00,WSW,255,1.0,4.0,84,-99.99,,,-99.99,,2013-07-09 09:34:00,
2013-07-09 05:42:00,67.0,62.0,-100.00,West,275,0.0,4.0,84,-99.99,,,-99.99,,2013-07-09 09:42:00,
2013-07-09 05:53:00,67.0,62.0,-100.00,West,275,0.0,4.0,84,-99.99,,,-99.99,,2013-07-09 09:53:00,
2013-07-09 06:02:00,67.0,62.0,-100.00,West,265,2.0,5.0,84,-99.99,,,-99.99,,2013-07-09 10:02:00,
2013-07-09 06:11:00,67.0,62.0,-100.00,WNW,300,0.0,5.0,84,-99.99,,,-99.99,,2013-07-09 10:11:00,
2013-07-09 06:22:00,67.0,62.0,-100.00,WNW,300,0.0,5.0,84,-99.99,,,-99.99,,2013-07-09 10:22:00,
2013-07-09 06:34:00,67.0,62.0,-100.00,WSW,255,1.0,2.0,84,-99.99,,,-99.99,,2013-07-09 10:34:00,
2013-07-09 07:02:00,67.0,62.0,-100.00,West,275,0.0,2.0,84,-99.99,,,-99.99,,2013-07-09 11:02:00,
2013-07-09 07:11:00,68.0,63.0,-100.00,South,175,0.0,0.0,84,-99.99,,,-99.99,,2013-07-09 11:11:00,
2013-07-09 07:22:00,68.0,63.0,-100.00,South,175,0.0,0.0,84,-99.99,,,-99.99,,2013-07-09 11:22:00,
2013-07-09 07:34:00,69.0,63.0,-100.00,West,265,0.0,2.0,80,-99.99,,,-99.99,,2013-07-09 11:34:00,
2013-07-09 07:42:00,71.0,63.0,-100.00,WSW,240,0.0,2.0,75,-99.99,,,-99.99,,2013-07-09 11:42:00,
2013-07-09 07:53:00,72.0,62.0,-100.00,NW,305,2.0,5.0,71,-99.99,,,-99.99,,2013-07-09 11:53:00,
2013-07-09 08:02:00,72.0,62.0,-100.00,NW,305,2.0,5.0,71,-99.99,,,-99.99,,2013-07-09 12:02:00,
2013-07-09 08:12:00,72.0,62.0,-100.00,West,265,1.0,4.0,70,-99.99,,,-99.99,,2013-07-09 12:12:00,
2013-07-09 08:22:00,72.0,62.0,-100.00,West,265,1.0,4.0,70,-99.99,,,-99.99,,2013-07-09 12:22:00,
2013-07-09 08:33:00,72.0,62.0,-100.00,NW,310,3.0,6.0,70,-99.99,,,-99.99,,2013-07-09 12:33:00,
2013-07-09 08:52:00,71.0,61.0,-100.00,WSW,240,1.0,4.0,71,-99.99,,,-99.99,,2013-07-09 12:52:00,
2013-07-09 09:01:00,74.0,63.0,-100.00,NNE,15,0.0,3.0,70,-99.99,,,-99.99,,2013-07-09 13:01:00,
2013-07-09 09:22:00,75.0,63.0,-100.00,WSW,255,1.0,3.0,65,-99.99,,,-99.99,,2013-07-09 13:22:00,
2013-07-09 09:33:00,76.0,63.0,-100.00,WNW,300,0.0,6.0,63,-99.99,,,-99.99,,2013-07-09 13:33:00,
2013-07-09 09:53:00,78.0,63.0,-100.00,North,350,1.0,4.0,60,-99.99,,,-99.99,,2013-07-09 13:53:00,
2013-07-09 10:02:00,77.0,63.0,-100.00,North,5,0.0,3.0,62,-99.99,,,-99.99,,2013-07-09 14:02:00,
2013-07-09 10:34:00,80.0,63.0,-100.00,North,0,2.0,3.0,56,-99.99,,,-99.99,,2013-07-09 14:34:00,
2013-07-09 10:53:00,81.0,62.0,-100.00,NW,305,2.0,5.0,54,-99.99,,,-99.99,,2013-07-09 14:53:00,
2013-07-09 11:22:00,82.0,62.0,-100.00,SW,225,5.0,7.0,52,-99.99,,,-99.99,,2013-07-09 15:22:00,
2013-07-09 11:34:00,83.0,63.0,-100.00,SW,220,3.0,5.0,51,-99.99,,,-99.99,,2013-07-09 15:34:00,
2013-07-09 11:52:00,82.0,63.0,-100.00,SW,215,5.0,8.0,52,-99.99,,,-99.99,,2013-07-09 15:52:00,
2013-07-09 12:02:00,83.0,63.0,-100.00,South,185,2.0,4.0,50,-99.99,,,-99.99,,2013-07-09 16:02:00,
2013-07-09 12:43:00,83.0,63.0,-100.00,SSW,195,4.0,7.0,50,-99.99,,,-99.99,,2013-07-09 16:43:00,